Time,TemperatureF,DewpointF,PressureIn,WindDirection,WindDirectionDegrees,WindSpeedMPH,WindSpeedGustMPH,Humidity,HourlyPrecipIn,Conditions,Clouds,dailyrainin,SoftwareType,DateUTC
2013-01-10 00:07:00,36.4,15.9,29.93,SSE,158,3.6,4.0,43,0.00, +FZSN FG BLRA SQ BLRA,OVC100 VV000 5SM,0.00,WUHU216HW,2013-01-10 07:07:00,
2013-01-10 00:09:00,37.1,16.0,29.93,SSE,158,4.3,4.7,42,0.00, +FZSN FG BLRA SQ BLRA,OVC100 VV000 5SM,0.00,WUHU216HW,2013-01-10 07:09:00,
2013-01-10 00:11:00,37.4,15.9,29.92,SE,143,4.0,4.9,41,0.00, +FZSN FG BLRA SQ BLRA,OVC100 VV000 5SM,0.00,WUHU216HW,2013-01-10 07:11:00,
2013-01-10 00:13:00,37.6,16.0,29.92,SSE,158,3.0,4.9,41,0.00, +FZSN FG BLRA SQ BLRA,OVC100 VV000 5SM,0.00,WUHU216HW,2013-01-10 07:13:00,
2013-01-10 00:14:00,37.8,15.7,29.92,SSE,158,2.7,4.9,40,0.00, +FZSN FG BLRA SQ BLRA,OVC100 VV000 5SM,0.00,WUHU216HW,2013-01-10 07:14:00,
2013-01-10 00:16:00,37.8,15.7,29.92,SSE,158,2.7,4.9,40,0.00, +FZSN FG BLRA SQ BLRA,OVC100 VV000 5SM,0.00,WUHU216HW,2013-01-10 07:16:00,
2013-01-10 00:17:00,38.0,15.8,29.92,SE,135,3.4,4.9,40,0.00, +FZSN FG BLRA SQ BLRA,OVC100 VV000 5SM,0.00,WUHU216HW,2013-01-10 07:17:00,
2013-01-10 00:19:00,38.0,15.8,29.92,SSE,158,3.6,4.9,40,0.00, +FZSN FG BLRA SQ BLRA,OVC100 VV000 5SM,0.00,WUHU216HW,2013-01-10 07:19:00,
2013-01-10 00:20:00,37.8,15.7,29.92,SSE,153,3.1,4.9,40,0.00, +FZSN FG BLRA SQ BLRA,OVC100 VV000 5SM,0.00,WUHU216HW,2013-01-10 07:20:00,
2013-01-10 00:21:00,37.8,15.7,29.92,SSE,158,2.9,3.6,40,0.00, +FZSN FG BLRA SQ BLRA,OVC100 VV000 5SM,0.00,WUHU216HW,2013-01-10 07:21:00,
2013-01-10 00:23:00,37.6,15.5,29.92,SE,135,3.4,3.6,40,0.00, +FZSN FG BLRA SQ BLRA,OVC100 VV000 5SM,0.00,WUHU216HW,2013-01-10 07:23:00,
2013-01-10 00:24:00,37.4,15.3,29.92,SSE,158,3.4,3.6,40,0.00, +FZSN FG BLRA SQ BLRA,OVC100 VV000 5SM,0.00,WUHU216HW,2013-01-10 07:24:00,
2013-01-10 00:26:00,37.4,15.3,29.92,SSE,153,3.3,3.6,40,0.00, +FZSN FG BLRA SQ BLRA,OVC100 VV000 5SM,0.00,WUHU216HW,2013-01-10 07:26:00,
2013-01-10 00:27:00,37.4,15.3,29.92,SSE,158,2.8,3.6,40,0.00, +FZSN FG BLRA SQ BLRA,OVC100 VV000 5SM,0.00,WUHU216HW,2013-01-10 07:27:00,
2013-01-10 00:28:00,37.4,14.7,29.91,SSE,148,2.3,3.6,39,0.00, +FZSN FG BLRA SQ BLRA,OVC100 VV000 5SM,0.00,WUHU216HW,2013-01-10 07:28:00,
2013-01-10 00:30:00,37.4,14.7,29.91,SSE,158,2.5,3.4,39,0.00, +FZSN FG BLRA SQ BLRA,OVC100 VV000 5SM,0.00,WUHU216HW,2013-01-10 07:30:00,
2013-01-10 00:31:00,37.4,14.7,29.91,SSE,158,4.0,4.0,39,0.00, +FZSN FG BLRA SQ BLRA,OVC100 VV000 5SM,0.00,WUHU216HW,2013-01-10 07:31:00,
2013-01-10 00:33:00,37.1,14.9,29.91,SSE,158,3.2,4.0,40,0.00, +FZSN FG BLRA SQ BLRA,OVC100 VV000 5SM,0.00,WUHU216HW,2013-01-10 07:33:00,
2013-01-10 00:34:00,36.9,14.9,29.91,South,180,2.9,4.0,40,0.00, +FZSN FG BLRA SQ BLRA,OVC100 VV000 5SM,0.00,WUHU216HW,2013-01-10 07:34:00,
2013-01-10 00:36:00,36.7,14.7,29.91,South,180,1.5,4.0,40,0.00, +FZSN FG BLRA SQ BLRA,OVC100 VV000 5SM,0.00,WUHU216HW,2013-01-10 07:36:00,
2013-01-10 00:37:00,36.7,14.7,29.91,South,180,0.1,4.0,40,0.00, +FZSN FG BLRA SQ BLRA,OVC100 VV000 5SM,0.00,WUHU216HW,2013-01-10 07:37:00,
2013-01-10 00:39:00,36.5,14.5,29.91,WSW,248,0.0,4.0,40,0.00, +FZSN FG BLRA SQ BLRA,OVC100 VV000 5SM,0.00,WUHU216HW,2013-01-10 07:39:00,
2013-01-10 00:40:00,36.5,14.5,29.91,WSW,248,0.0,4.0,40,0.00, +FZSN FG BLRA SQ BLRA,OVC100 VV000 5SM,0.00,WUHU216HW,2013-01-10 07:40:00,
2013-01-10 00:42:00,36.4,15.4,29.91,WSW,248,0.0,4.0,42,0.00, +FZSN FG BLRA SQ BLRA,OVC100 VV000 5SM,0.00,WUHU216HW,2013-01-10 07:42:00,
2013-01-10 00:43:00,36.0,14.5,29.91,WSW,248,0.0,2.9,41,0.00, +FZSN FG BLRA SQ BLRA,OVC100 VV000 5SM,0.00,WUHU216HW,2013-01-10 07:43:00,
2013-01-10 00:45:00,35.8,14.4,29.91,WSW,248,0.0,1.1,41,0.00, +FZSN FG BLRA SQ BLRA,OVC100 VV000 5SM,0.00,WUHU216HW,2013-01-10 07:45:00,
2013-01-10 00:46:00,35.6,14.2,29.91,WSW,248,0.0,0.0,41,0.00, +FZSN FG BLRA SQ BLRA,OVC100 VV000 5SM,0.00,WUHU216HW,2013-01-10 07:46:00,
2013-01-10 00:48:00,35.6,14.2,29.91,WSW,248,0.0,0.0,41,0.00, +FZSN FG BLRA SQ BLRA,OVC100 VV000 5SM,0.00,WUHU216HW,2013-01-10 07:48:00,
2013-01-10 00:49:00,35.6,14.2,29.91,WSW,248,0.0,0.0,41,0.00, +FZSN FG BLRA SQ BLRA,OVC100 VV000 5SM,0.00,WUHU216HW,2013-01-10 07:49:00,
2013-01-10 00:51:00,35.5,14.6,29.91,SW,225,0.0,0.0,42,0.00, +FZSN FG BLRA SQ BLRA,OVC100 VV000 5SM,0.00,WUHU216HW,2013-01-10 07:51:00,
2013-01-10 00:52:00,35.1,13.7,29.91,SSE,158,1.1,1.1,41,0.00, +FZSN FG BLRA SQ BLRA,OVC100 VV000 5SM,0.00,WUHU216HW,2013-01-10 07:52:00,
2013-01-10 00:54:00,35.1,13.7,29.91,SSE,158,1.1,1.1,41,0.00, +FZSN FG BLRA SQ BLRA,OVC100 VV000 5SM,0.00,WUHU216HW,2013-01-10 07:54:00,
2013-01-10 00:55:00,34.9,13.6,29.91,SE,135,2.5,2.5,41,0.00, +FZSN FG BLRA SQ BLRA,OVC100 VV000 5SM,0.00,WUHU216HW,2013-01-10 07:55:00,
2013-01-10 00:57:00,34.9,13.6,29.91,SE,139,2.4,2.5,41,0.00, +FZSN FG BLRA SQ BLRA,OVC100 VV000 5SM,0.00,WUHU216HW,2013-01-10 07:57:00,
2013-01-10 01:07:00,35.6,14.8,29.90,SSE,158,2.0,2.5,42,0.00, +FZSN FG BLRA SQ BLRA,OVC100 VV000 5SM,0.00,WUHU216HW,2013-01-10 08:07:00,
2013-01-10 01:12:00,36.2,15.2,29.90,South,180,2.5,2.9,42,0.00, +FZSN FG BLRA SQ BLRA,OVC100 VV000 5SM,0.00,WUHU216HW,2013-01-10 08:12:00,
2013-01-10 01:17:00,36.9,15.8,29.91,South,180,2.6,3.1,42,0.00, +FZSN FG BLRA SQ BLRA,OVC100 VV000 5SM,0.00,WUHU216HW,2013-01-10 08:17:00,
2013-01-10 01:22:00,37.8,16.7,29.91,SSE,158,3.1,3.6,42,0.00, +FZSN FG BLRA SQ BLRA,OVC100 VV000 5SM,0.00,WUHU216HW,2013-01-10 08:22:00,
2013-01-10 01:27:00,38.5,16.3,29.91,South,175,3.5,3.8,40,0.00, +FZSN FG BLRA SQ BLRA,OVC100 VV000 5SM,0.00,WUHU216HW,2013-01-10 08:27:00,
2013-01-10 01:32:00,39.8,16.1,29.91,SSE,153,3.6,4.0,38,0.00, +FZSN FG BLRA SQ BLRA,OVC100 VV000 5SM,0.00,WUHU216HW,2013-01-10 08:32:00,
2013-01-10 01:37:00,40.1,15.8,29.91,SSE,155,3.7,4.0,37,0.00, +FZSN FG BLRA SQ BLRA,OVC100 VV000 5SM,0.00,WUHU216HW,2013-01-10 08:37:00,
2013-01-10 01:42:00,40.1,15.8,29.91,SE,139,3.5,4.0,37,0.00, +FZSN FG BLRA SQ BLRA,OVC100 VV000 5SM,0.00,WUHU216HW,2013-01-10 08:42:00,
2013-01-10 01:47:00,40.3,15.9,29.90,ESE,113,2.9,4.0,37,0.00, +FZSN FG BLRA SQ BLRA,OVC100 VV000 5SM,0.00,WUHU216HW,2013-01-10 08:47:00,
2013-01-10 01:52:00,40.3,15.9,29.90,SE,133,1.4,3.6,37,0.00, +FZSN FG BLRA SQ BLRA,OVC100 VV000 5SM,0.00,WUHU216HW,2013-01-10 08:52:00,
2013-01-10 01:57:00,40.3,15.9,29.90,East,90,2.9,2.9,37,0.00, +FZSN FG BLRA SQ BLRA,OVC100 VV000 5SM,0.00,WUHU216HW,2013-01-10 08:57:00,
2013-01-10 02:02:00,40.5,15.5,29.90,ESE,113,1.1,2.9,36,0.00, +FZSN FG BLRA SQ BLRA,OVC100 VV000 5SM,0.00,WUHU216HW,2013-01-10 09:02:00,
2013-01-10 02:07:00,40.5,15.5,29.90,SE,125,0.8,2.9,36,0.00, +FZSN FG BLRA SQ BLRA,OVC100 VV000 5SM,0.00,WUHU216HW,2013-01-10 09:07:00,
2013-01-10 02:12:00,40.5,15.5,29.90,East,90,1.5,1.8,36,0.00, +FZSN FG BLRA SQ BLRA,OVC100 VV000 5SM,0.00,WUHU216HW,2013-01-10 09:12:00,
2013-01-10 02:17:00,40.3,15.3,29.90,ENE,68,1.3,1.8,36,0.00, +FZSN FG BLRA SQ BLRA,OVC100 VV000 5SM,0.00,WUHU216HW,2013-01-10 09:17:00,
2013-01-10 02:22:00,40.0,14.9,29.90,ENE,68,0.0,1.3,36,0.00, +FZSN FG BLRA SQ BLRA,OVC100 VV000 5SM,0.00,WUHU216HW,2013-01-10 09:22:00,
2013-01-10 02:27:00,39.4,14.5,29.90,ENE,68,1.8,1.8,36,0.00, +FZSN FG BLRA SQ BLRA,OVC100 VV000 5SM,0.00,WUHU216HW,2013-01-10 09:27:00,
2013-01-10 02:32:00,39.1,14.9,29.89,ENE,68,0.1,3.1,37,0.00, +FZSN FG BLRA SQ BLRA,OVC100 VV000 5SM,0.00,WUHU216HW,2013-01-10 09:32:00,
2013-01-10 02:37:00,38.5,14.3,29.89,NNW,338,0.0,3.1,37,0.00, +FZSN FG BLRA SQ BLRA,OVC100 VV000 5SM,0.00,WUHU216HW,2013-01-10 09:37:00,
2013-01-10 02:42:00,37.4,14.1,29.89,WNW,293,0.5,1.6,38,0.00, +FZSN FG BLRA SQ BLRA,OVC100 VV000 5SM,0.00,WUHU216HW,2013-01-10 09:42:00,
2013-01-10 02:47:00,36.7,14.1,29.89,NW,315,0.0,1.1,39,0.00, +FZSN FG BLRA SQ BLRA,OVC100 VV000 5SM,0.00,WUHU216HW,2013-01-10 09:47:00,
2013-01-10 02:52:00,36.2,14.1,29.89,ENE,68,2.0,2.0,40,0.00, +FZSN FG BLRA SQ BLRA,OVC100 VV000 5SM,0.00,WUHU216HW,2013-01-10 09:52:00,
2013-01-10 02:57:00,36.0,14.1,29.89,ENE,68,0.4,2.0,40,0.00, +FZSN FG BLRA SQ BLRA,OVC100 VV000 5SM,0.00,WUHU216HW,2013-01-10 09:57:00,
2013-01-10 03:02:00,36.2,15.2,29.88,East,90,2.5,2.5,42,0.00, +FZSN FG BLRA SQ BLRA,OVC100 VV000 5SM,0.00,WUHU216HW,2013-01-10 10:02:00,
2013-01-10 03:07:00,36.9,15.3,29.88,NNE,23,0.2,2.5,41,0.00, +FZSN FG BLRA SQ BLRA,OVC100 VV000 5SM,0.00,WUHU216HW,2013-01-10 10:07:00,
2013-01-10 03:12:00,37.6,16.0,29.88,East,89,4.4,5.1,41,0.00, +FZSN FG BLRA SQ BLRA,OVC100 VV000 5SM,0.00,WUHU216HW,2013-01-10 10:12:00,
2013-01-10 03:17:00,38.3,16.1,29.88,ENE,68,3.8,5.1,40,0.00, +FZSN FG BLRA SQ BLRA,OVC100 VV000 5SM,0.00,WUHU216HW,2013-01-10 10:17:00,
2013-01-10 03:22:00,38.9,16.6,29.88,ENE,69,3.0,5.6,40,0.00, +FZSN FG BLRA SQ BLRA,OVC100 VV000 5SM,0.00,WUHU216HW,2013-01-10 10:22:00,
2013-01-10 03:27:00,39.1,16.1,29.88,East,79,4.8,5.8,39,0.00, +FZSN FG BLRA SQ BLRA,OVC100 VV000 5SM,0.00,WUHU216HW,2013-01-10 10:27:00,
2013-01-10 03:32:00,39.2,16.3,29.87,ENE,68,5.8,6.5,39,0.00, +FZSN FG BLRA SQ BLRA,OVC100 VV000 5SM,0.00,WUHU216HW,2013-01-10 10:32:00,
2013-01-10 03:37:00,39.4,16.5,29.87,ENE,76,4.3,6.5,39,0.00, +FZSN FG BLRA SQ BLRA,OVC100 VV000 5SM,0.00,WUHU216HW,2013-01-10 10:37:00,
2013-01-10 03:42:00,39.2,16.3,29.87,ENE,63,3.7,5.8,39,0.00, +FZSN FG BLRA SQ BLRA,OVC100 VV000 5SM,0.00,WUHU216HW,2013-01-10 10:42:00,
2013-01-10 03:47:00,39.2,16.3,29.87,ENE,70,3.0,4.7,39,0.00, +FZSN FG BLRA SQ BLRA,OVC100 VV000 5SM,0.00,WUHU216HW,2013-01-10 10:47:00,
2013-01-10 03:52:00,39.1,16.1,29.86,ENE,68,1.1,5.4,39,0.00, +FZSN FG BLRA SQ BLRA,OVC100 VV000 5SM,0.00,WUHU216HW,2013-01-10 10:52:00,
2013-01-10 03:57:00,39.1,16.7,29.86,SE,132,0.3,5.4,40,0.00, +FZSN FG BLRA SQ BLRA,OVC100 VV000 5SM,0.00,WUHU216HW,2013-01-10 10:57:00,
2013-01-10 04:02:00,39.1,16.7,29.86,West,270,0.0,2.7,40,0.00, +FZSN FG BLRA SQ BLRA,OVC100 VV000 5SM,0.00,WUHU216HW,2013-01-10 11:02:00,
2013-01-10 04:07:00,38.9,16.6,29.86,NE,45,1.6,1.6,40,0.00, +FZSN FG BLRA SQ BLRA,OVC100 VV000 5SM,0.00,WUHU216HW,2013-01-10 11:07:00,
2013-01-10 04:12:00,38.7,16.5,29.85,NNE,23,2.5,2.5,40,0.00, +FZSN FG BLRA SQ BLRA,OVC100 VV000 5SM,0.00,WUHU216HW,2013-01-10 11:12:00,
2013-01-10 04:17:00,38.5,16.3,29.86,NE,55,2.1,2.5,40,0.00, +FZSN FG BLRA SQ BLRA,OVC100 VV000 5SM,0.00,WUHU216HW,2013-01-10 11:17:00,
2013-01-10 04:22:00,38.5,16.3,29.85,ENE,68,4.7,4.7,40,0.00, +FZSN FG BLRA SQ BLRA,OVC100 VV000 5SM,0.00,WUHU216HW,2013-01-10 11:22:00,
2013-01-10 04:27:00,38.3,16.7,29.84,ENE,60,2.6,4.7,41,0.00, +FZSN FG BLRA SQ BLRA,OVC100 VV000 5SM,0.00,WUHU216HW,2013-01-10 11:27:00,
2013-01-10 04:32:00,38.3,17.2,29.85,NE,39,3.5,4.7,42,0.00, +FZSN FG BLRA SQ BLRA,OVC100 VV000 5SM,0.00,WUHU216HW,2013-01-10 11:32:00,
2013-01-10 04:37:00,38.2,17.0,29.85,NNW,343,3.0,3.8,42,0.00, +FZSN FG BLRA SQ BLRA,OVC100 VV000 5SM,0.00,WUHU216HW,2013-01-10 11:37:00,
2013-01-10 04:42:00,38.2,17.6,29.84,NE,45,6.3,6.3,43,0.00, +FZSN FG BLRA SQ BLRA,OVC100 VV000 5SM,0.00,WUHU216HW,2013-01-10 11:42:00,
2013-01-10 04:47:00,38.5,17.8,29.84,NE,36,3.3,6.3,43,0.00, +FZSN FG BLRA SQ BLRA,OVC100 VV000 5SM,0.00,WUHU216HW,2013-01-10 11:47:00,
2013-01-10 04:52:00,38.5,17.8,29.83,NE,45,3.6,6.3,43,0.00, +FZSN FG BLRA SQ BLRA,OVC100 VV000 5SM,0.00,WUHU216HW,2013-01-10 11:52:00,
2013-01-10 04:57:00,38.2,17.0,29.82,ENE,68,3.5,5.6,42,0.00, +FZSN FG BLRA SQ BLRA,OVC100 VV000 5SM,0.00,WUHU216HW,2013-01-10 11:57:00,
2013-01-10 05:02:00,37.8,16.7,29.82,ENE,68,3.4,4.7,42,0.00, +FZSN FG BLRA SQ BLRA,OVC100 VV000 5SM,0.00,WUHU216HW,2013-01-10 12:02:00,
2013-01-10 05:07:00,37.6,17.0,29.82,ESE,113,1.1,3.4,43,0.00, +FZSN FG BLRA SQ BLRA,OVC100 VV000 5SM,0.00,WUHU216HW,2013-01-10 12:07:00,
2013-01-10 05:12:00,37.4,16.8,29.82,East,88,1.9,2.5,43,0.00, +FZSN FG BLRA SQ BLRA,OVC100 VV000 5SM,0.00,WUHU216HW,2013-01-10 12:12:00,
2013-01-10 05:17:00,37.6,17.6,29.82,SE,135,3.8,3.8,44,0.00, +FZSN FG BLRA SQ BLRA,OVC100 VV000 5SM,0.00,WUHU216HW,2013-01-10 12:17:00,
2013-01-10 05:22:00,38.0,17.4,29.82,SE,135,2.9,4.5,43,0.00, +FZSN FG BLRA SQ BLRA,OVC100 VV000 5SM,0.00,WUHU216HW,2013-01-10 12:22:00,
2013-01-10 05:27:00,38.2,17.6,29.82,East,90,3.8,4.5,43,0.00, +FZSN FG BLRA SQ BLRA,OVC100 VV000 5SM,0.00,WUHU216HW,2013-01-10 12:27:00,
2013-01-10 05:32:00,38.3,17.6,29.82,ESE,103,3.3,4.9,43,0.00, +FZSN FG BLRA SQ BLRA,OVC100 VV000 5SM,0.00,WUHU216HW,2013-01-10 12:32:00,
2013-01-10 05:37:00,38.5,17.8,29.81,SE,135,5.4,5.4,43,0.00, +FZSN FG BLRA SQ BLRA,OVC100 VV000 5SM,0.00,WUHU216HW,2013-01-10 12:37:00,
2013-01-10 05:42:00,38.9,18.2,29.81,ESE,113,5.1,5.4,43,0.00, +FZSN FG BLRA SQ BLRA,OVC100 VV000 5SM,0.00,WUHU216HW,2013-01-10 12:42:00,
2013-01-10 05:47:00,38.9,18.2,29.81,ESE,113,6.5,6.5,43,0.00, +FZSN FG BLRA SQ BLRA,OVC100 VV000 5SM,0.00,WUHU216HW,2013-01-10 12:47:00,
2013-01-10 05:52:00,39.1,17.8,29.80,East,90,6.1,6.9,42,0.00, +FZSN FG BLRA SQ BLRA,OVC100 VV000 5SM,0.00,WUHU216HW,2013-01-10 12:52:00,
2013-01-10 05:57:00,39.4,18.1,29.80,SE,135,4.7,6.9,42,0.00, +FZSN FG BLRA SQ BLRA,OVC100 VV000 5SM,0.00,WUHU216HW,2013-01-10 12:57:00,
2013-01-10 06:02:00,40.0,18.1,29.81,East,90,5.6,5.6,41,0.00, +FZSN FG BLRA SQ BLRA,OVC100 VV000 5SM,0.00,WUHU216HW,2013-01-10 13:02:00,
2013-01-10 06:07:00,40.3,18.5,29.81,East,90,5.1,6.3,41,0.00, +FZSN FG BLRA SQ BLRA,OVC100 VV000 5SM,0.00,WUHU216HW,2013-01-10 13:07:00,
2013-01-10 06:12:00,40.5,18.1,29.81,SE,135,4.7,6.3,40,0.00, +FZSN FG BLRA SQ BLRA,OVC100 VV000 5SM,0.00,WUHU216HW,2013-01-10 13:12:00,
2013-01-10 06:17:00,40.5,18.1,29.81,SE,135,4.0,5.6,40,0.00, +FZSN FG BLRA SQ BLRA,OVC100 VV000 5SM,0.00,WUHU216HW,2013-01-10 13:17:00,
2013-01-10 06:22:00,40.5,18.1,29.82,SW,225,1.8,5.6,40,0.00, +FZSN FG BLRA SQ BLRA,OVC100 VV000 5SM,0.00,WUHU216HW,2013-01-10 13:22:00,
2013-01-10 06:27:00,40.3,17.9,29.82,SSW,203,1.3,5.4,40,0.00, +FZSN FG BLRA SQ BLRA,OVC100 VV000 5SM,0.00,WUHU216HW,2013-01-10 13:27:00,
2013-01-10 06:32:00,40.0,18.1,29.82,WSW,248,2.7,4.5,41,0.00, +FZSN FG BLRA SQ BLRA,OVC100 VV000 5SM,0.00,WUHU216HW,2013-01-10 13:32:00,
2013-01-10 06:37:00,40.7,18.2,29.82,South,180,4.7,5.4,40,0.00, +FZSN FG BLRA SQ BLRA,OVC100 VV000 5SM,0.00,WUHU216HW,2013-01-10 13:37:00,
2013-01-10 06:42:00,40.7,18.2,29.82,WNW,291,0.6,5.4,40,0.00, +FZSN FG BLRA SQ BLRA,OVC100 VV000 5SM,0.00,WUHU216HW,2013-01-10 13:42:00,
2013-01-10 06:47:00,40.1,17.7,29.82,NW,315,1.2,3.8,40,0.00, +FZSN FG BLRA SQ BLRA,OVC100 VV000 5SM,0.00,WUHU216HW,2013-01-10 13:47:00,
2013-01-10 06:52:00,39.4,17.7,29.82,SE,135,0.6,1.8,41,0.00, +FZSN FG BLRA SQ BLRA,OVC100 VV000 5SM,0.00,WUHU216HW,2013-01-10 13:52:00,
2013-01-10 06:57:00,38.7,17.5,29.82,SE,135,0.0,1.1,42,0.00, +FZSN FG BLRA SQ BLRA,OVC100 VV000 5SM,0.00,WUHU216HW,2013-01-10 13:57:00,
2013-01-10 07:02:00,38.3,17.2,29.82,East,90,0.8,1.1,42,0.00, +FZSN FG BLRA SQ BLRA,OVC100 VV000 5SM,0.00,WUHU216HW,2013-01-10 14:02:00,
2013-01-10 07:07:00,38.0,16.8,29.82,East,90,2.5,2.5,42,0.00, +FZSN FG BLRA SQ BLRA,OVC100 VV000 5SM,0.00,WUHU216HW,2013-01-10 14:07:00,
2013-01-10 07:12:00,37.8,17.2,29.81,ESE,113,2.2,2.5,43,0.00, +FZSN FG BLRA SQ BLRA,OVC100 VV000 5SM,0.00,WUHU216HW,2013-01-10 14:12:00,
2013-01-10 07:17:00,37.8,17.2,29.82,ESE,113,0.9,2.5,43,0.00, +FZSN FG BLRA SQ BLRA,OVC100 VV000 5SM,0.00,WUHU216HW,2013-01-10 14:17:00,
2013-01-10 07:22:00,37.8,17.2,29.82,ESE,113,0.0,2.2,43,0.00, +FZSN FG BLRA SQ BLRA,OVC100 VV000 5SM,0.00,WUHU216HW,2013-01-10 14:22:00,
2013-01-10 07:27:00,37.6,17.0,29.82,South,180,0.0,0.0,43,0.00, +FZSN FG BLRA SQ BLRA,OVC100 VV000 5SM,0.00,WUHU216HW,2013-01-10 14:27:00,
2013-01-10 07:32:00,37.4,17.4,29.82,SSW,203,2.5,3.1,44,0.00, +FZSN FG BLRA SQ BLRA,OVC100 VV000 5SM,0.00,WUHU216HW,2013-01-10 14:32:00,
2013-01-10 07:37:00,37.3,17.7,29.82,SSE,158,0.4,3.1,45,0.00, +FZSN FG BLRA SQ BLRA,OVC100 VV000 5SM,0.00,WUHU216HW,2013-01-10 14:37:00,
2013-01-10 07:42:00,37.3,17.2,29.82,SSW,193,1.2,2.5,44,0.00, +FZSN FG BLRA SQ BLRA,OVC100 VV000 5SM,0.00,WUHU216HW,2013-01-10 14:42:00,
2013-01-10 07:47:00,37.1,17.1,29.82,SSE,158,0.4,1.6,44,0.00, +FZSN FG BLRA SQ BLRA,OVC100 VV000 5SM,0.00,WUHU216HW,2013-01-10 14:47:00,
2013-01-10 07:52:00,36.7,17.3,29.82,SSW,203,4.7,4.9,45,0.00, +FZSN FG BLRA SQ BLRA,OVC100 VV000 5SM,0.00,WUHU216HW,2013-01-10 14:52:00,
2013-01-10 07:57:00,39.2,19.5,29.82,South,180,6.9,6.9,45,0.00, +FZSN FG BLRA SQ BLRA,OVC100 VV000 5SM,0.00,WUHU216HW,2013-01-10 14:57:00,
2013-01-10 08:02:00,41.6,20.1,29.82,SSE,158,11.6,11.6,42,0.00, +FZSN FG BLRA SQ BLRA,OVC100 VV000 5SM,0.00,WUHU216HW,2013-01-10 15:02:00,
2013-01-10 08:07:00,43.0,19.6,29.82,South,180,8.5,11.6,39,0.00, +FZSN FG BLRA SQ BLRA,OVC100 VV000 5SM,0.00,WUHU216HW,2013-01-10 15:07:00,
2013-01-10 08:12:00,43.6,19.4,29.83,SSE,158,5.1,11.6,38,0.00, +FZSN FG BLRA SQ BLRA,OVC100 VV000 5SM,0.00,WUHU216HW,2013-01-10 15:12:00,
2013-01-10 08:17:00,43.7,19.0,29.82,North,0,0.0,9.2,37,0.00, +FZSN FG BLRA SQ BLRA,OVC100 VV000 5SM,0.00,WUHU216HW,2013-01-10 15:17:00,
2013-01-10 08:22:00,44.1,19.3,29.82,North,0,0.0,5.1,37,0.00, +FZSN FG BLRA SQ BLRA,OVC100 VV000 5SM,0.00,WUHU216HW,2013-01-10 15:22:00,
2013-01-10 08:27:00,44.3,19.4,29.82,SSE,158,8.5,8.5,37,0.00, +FZSN FG BLRA SQ BLRA,OVC100 VV000 5SM,0.00,WUHU216HW,2013-01-10 15:27:00,
2013-01-10 08:32:00,44.6,19.8,29.82,South,180,9.8,9.8,37,0.00, +FZSN FG BLRA SQ BLRA,OVC100 VV000 5SM,0.00,WUHU216HW,2013-01-10 15:32:00,
2013-01-10 08:37:00,45.0,19.4,29.82,South,180,3.5,9.8,36,0.00, +FZSN FG BLRA SQ BLRA,OVC100 VV000 5SM,0.00,WUHU216HW,2013-01-10 15:37:00,
2013-01-10 08:42:00,45.2,19.6,29.82,North,0,0.0,9.8,36,0.00, +FZSN FG BLRA SQ BLRA,OVC100 VV000 5SM,0.00,WUHU216HW,2013-01-10 15:42:00,
2013-01-10 08:47:00,45.5,19.9,29.82,North,0,0.0,0.0,36,0.00, +FZSN FG BLRA SQ BLRA,OVC100 VV000 5SM,0.00,WUHU216HW,2013-01-10 15:47:00,
2013-01-10 08:52:00,45.7,19.5,29.82,North,0,0.0,0.0,35,0.00, +FZSN FG BLRA SQ BLRA,OVC100 VV000 5SM,0.00,WUHU216HW,2013-01-10 15:52:00,
2013-01-10 08:57:00,45.7,18.7,29.82,North,0,0.0,0.0,34,0.00, +FZSN FG BLRA SQ BLRA,OVC100 VV000 5SM,0.00,WUHU216HW,2013-01-10 15:57:00,
2013-01-10 09:02:00,45.7,18.1,29.82,North,0,0.0,0.0,33,0.00, +FZSN FG BLRA SQ BLRA,OVC100 VV000 5SM,0.00,WUHU216HW,2013-01-10 16:02:00,
2013-01-10 09:07:00,45.7,18.1,29.82,North,0,0.0,0.0,33,0.00, +FZSN FG BLRA SQ BLRA,OVC100 VV000 5SM,0.00,WUHU216HW,2013-01-10 16:07:00,
2013-01-10 09:12:00,45.7,18.1,29.82,North,0,0.0,0.0,33,0.00, +FZSN FG BLRA SQ BLRA,OVC100 VV000 5SM,0.00,WUHU216HW,2013-01-10 16:12:00,
2013-01-10 09:17:00,45.5,18.6,29.81,North,0,0.0,0.0,34,0.00, +FZSN FG BLRA SQ BLRA,OVC100 VV000 5SM,0.00,WUHU216HW,2013-01-10 16:17:00,
2013-01-10 09:22:00,45.4,19.1,29.81,North,0,0.0,0.0,35,0.00, +FZSN FG BLRA SQ BLRA,OVC100 VV000 5SM,0.00,WUHU216HW,2013-01-10 16:22:00,
2013-01-10 09:27:00,45.0,18.8,29.81,North,0,0.0,0.0,35,0.00, +FZSN FG BLRA SQ BLRA,OVC100 VV000 5SM,0.00,WUHU216HW,2013-01-10 16:27:00,
2013-01-10 09:32:00,45.0,17.5,29.81,North,0,0.0,0.0,33,0.00, +FZSN FG BLRA SQ BLRA,OVC100 VV000 5SM,0.00,WUHU216HW,2013-01-10 16:32:00,
2013-01-10 09:37:00,45.0,17.5,29.81,North,0,0.0,0.0,33,0.00, +FZSN FG BLRA SQ BLRA,OVC100 VV000 5SM,0.00,WUHU216HW,2013-01-10 16:37:00,
2013-01-10 09:42:00,45.2,18.9,29.81,North,0,0.0,0.0,35,0.00, +FZSN FG BLRA SQ BLRA,OVC100 VV000 5SM,0.00,WUHU216HW,2013-01-10 16:42:00,
2013-01-10 09:47:00,45.7,19.5,29.81,North,0,0.0,0.0,35,0.00, +FZSN FG BLRA SQ BLRA,OVC100 VV000 5SM,0.00,WUHU216HW,2013-01-10 16:47:00,
2013-01-10 09:52:00,46.1,18.5,29.81,SE,135,5.1,5.8,33,0.00, +FZSN FG BLRA SQ BLRA,OVC100 VV000 5SM,0.00,WUHU216HW,2013-01-10 16:52:00,
2013-01-10 09:57:00,46.8,19.1,29.80,ESE,113,4.9,5.8,33,0.00, +FZSN FG BLRA SQ BLRA,OVC100 VV000 5SM,0.00,WUHU216HW,2013-01-10 16:57:00,
2013-01-10 10:02:00,47.2,19.4,29.80,SE,133,4.1,6.5,33,0.00, +FZSN FG BLRA SQ BLRA,OVC100 VV000 5SM,0.00,WUHU216HW,2013-01-10 17:02:00,
2013-01-10 10:07:00,47.7,19.9,29.81,SE,135,8.7,8.7,33,0.00, +FZSN FG BLRA SQ BLRA,OVC100 VV000 5SM,0.00,WUHU216HW,2013-01-10 17:07:00,
2013-01-10 10:12:00,47.9,19.4,29.80,SE,139,6.4,8.7,32,0.00, +FZSN FG BLRA SQ BLRA,OVC100 VV000 5SM,0.00,WUHU216HW,2013-01-10 17:12:00,
2013-01-10 10:17:00,48.2,19.7,29.79,ESE,113,10.5,10.5,32,0.00, +FZSN FG BLRA SQ BLRA,OVC100 VV000 5SM,0.00,WUHU216HW,2013-01-10 17:17:00,
2013-01-10 10:22:00,48.6,19.4,29.79,SE,136,5.9,10.5,31,0.00, +FZSN FG BLRA SQ BLRA,OVC100 VV000 5SM,0.00,WUHU216HW,2013-01-10 17:22:00,
2013-01-10 10:27:00,49.0,19.6,29.79,ESE,113,11.0,12.8,31,0.00, +FZSN FG BLRA SQ BLRA,OVC100 VV000 5SM,0.00,WUHU216HW,2013-01-10 17:27:00,
2013-01-10 10:32:00,49.1,19.7,29.78,ESE,113,9.4,13.0,31,0.00, +FZSN FG BLRA SQ BLRA,OVC100 VV000 5SM,0.00,WUHU216HW,2013-01-10 17:32:00,
2013-01-10 10:37:00,49.1,19.7,29.78,ESE,119,8.7,13.0,31,0.00, +FZSN FG BLRA SQ BLRA,OVC100 VV000 5SM,0.00,WUHU216HW,2013-01-10 17:37:00,
2013-01-10 10:42:00,49.5,20.1,29.78,East,96,10.3,12.8,31,0.00, +FZSN FG BLRA SQ BLRA,OVC100 VV000 5SM,0.00,WUHU216HW,2013-01-10 17:42:00,
2013-01-10 10:47:00,49.5,20.1,29.78,SE,135,11.0,15.0,31,0.00, +FZSN FG BLRA SQ BLRA,OVC100 VV000 5SM,0.00,WUHU216HW,2013-01-10 17:47:00,
2013-01-10 10:52:00,49.3,19.9,29.77,ESE,113,11.4,15.0,31,0.00, +FZSN FG BLRA SQ BLRA,OVC100 VV000 5SM,0.00,WUHU216HW,2013-01-10 17:52:00,
2013-01-10 10:57:00,49.3,19.9,29.77,ESE,113,11.0,12.8,31,0.00, +FZSN FG BLRA SQ BLRA,OVC100 VV000 5SM,0.00,WUHU216HW,2013-01-10 17:57:00,
2013-01-10 11:02:00,49.0,19.6,29.77,SE,128,6.4,11.4,31,0.00, +FZSN FG BLRA SQ BLRA,OVC100 VV000 5SM,0.00,WUHU216HW,2013-01-10 18:02:00,
2013-01-10 11:07:00,49.0,20.3,29.77,SE,138,9.0,11.4,32,0.00, +FZSN FG BLRA SQ BLRA,OVC100 VV000 5SM,0.00,WUHU216HW,2013-01-10 18:07:00,
2013-01-10 11:12:00,49.1,20.4,29.77,ESE,113,10.7,11.9,32,0.00, +FZSN FG BLRA SQ BLRA,OVC100 VV000 5SM,0.00,WUHU216HW,2013-01-10 18:12:00,
2013-01-10 11:17:00,49.3,20.6,29.77,SE,133,7.7,11.9,32,0.00, +FZSN FG BLRA SQ BLRA,OVC100 VV000 5SM,0.00,WUHU216HW,2013-01-10 18:17:00,
2013-01-10 11:22:00,49.3,19.9,29.77,ESE,113,8.7,11.2,31,0.00, +FZSN FG BLRA SQ BLRA,OVC100 VV000 5SM,0.00,WUHU216HW,2013-01-10 18:22:00,
2013-01-10 11:27:00,49.7,20.9,29.76,East,90,9.2,12.8,32,0.00, +FZSN FG BLRA SQ BLRA,OVC100 VV000 5SM,0.00,WUHU216HW,2013-01-10 18:27:00,
2013-01-10 11:32:00,50.4,21.5,29.76,SE,135,6.9,12.8,32,0.00, +FZSN FG BLRA SQ BLRA,OVC100 VV000 5SM,0.00,WUHU216HW,2013-01-10 18:32:00,
2013-01-10 11:37:00,51.8,22.2,29.75,SSE,150,14.2,16.1,31,0.00, +FZSN FG BLRA SQ BLRA,OVC100 VV000 5SM,0.00,WUHU216HW,2013-01-10 18:37:00,
2013-01-10 11:42:00,52.7,22.2,29.75,SSE,158,11.6,16.1,30,0.00, +FZSN FG BLRA SQ BLRA,OVC100 VV000 5SM,0.00,WUHU216HW,2013-01-10 18:42:00,
2013-01-10 11:47:00,52.2,21.8,29.75,South,173,14.2,16.6,30,0.00, +FZSN FG BLRA SQ BLRA,OVC100 VV000 5SM,0.00,WUHU216HW,2013-01-10 18:47:00,
2013-01-10 11:52:00,51.7,21.2,29.74,South,180,19.0,19.0,30,0.00, +FZSN FG BLRA SQ BLRA,OVC100 VV000 5SM,0.00,WUHU216HW,2013-01-10 18:52:00,
2013-01-10 11:57:00,51.5,21.8,29.74,SSE,165,15.0,19.0,31,0.00, +FZSN FG BLRA SQ BLRA,OVC100 VV000 5SM,0.00,WUHU216HW,2013-01-10 18:57:00,
2013-01-10 12:02:00,51.3,21.6,29.74,SSE,150,12.3,19.0,31,0.00, +FZSN FG BLRA SQ BLRA,OVC100 VV000 5SM,0.00,WUHU216HW,2013-01-10 19:02:00,
2013-01-10 12:07:00,50.9,21.3,29.74,SSE,151,12.0,13.6,31,0.00, +FZSN FG BLRA SQ BLRA,OVC100 VV000 5SM,0.00,WUHU216HW,2013-01-10 19:07:00,
2013-01-10 12:12:00,50.8,21.2,29.74,SE,143,12.3,14.1,31,0.00, +FZSN FG BLRA SQ BLRA,OVC100 VV000 5SM,0.00,WUHU216HW,2013-01-10 19:12:00,
2013-01-10 12:17:00,50.6,21.7,29.74,SSE,159,11.4,15.9,32,0.00, +FZSN FG BLRA SQ BLRA,OVC100 VV000 5SM,0.00,WUHU216HW,2013-01-10 19:17:00,
2013-01-10 12:22:00,50.0,20.5,29.74,SSE,158,10.5,15.9,31,0.00, +FZSN FG BLRA SQ BLRA,OVC100 VV000 5SM,0.00,WUHU216HW,2013-01-10 19:22:00,
2013-01-10 12:27:00,49.5,20.7,29.73,ESE,113,8.5,13.9,32,0.00, +FZSN FG BLRA SQ BLRA,OVC100 VV000 5SM,0.00,WUHU216HW,2013-01-10 19:27:00,
2013-01-10 12:32:00,49.3,21.2,29.73,SSE,158,15.4,15.4,33,0.00, +FZSN FG BLRA SQ BLRA,OVC100 VV000 5SM,0.00,WUHU216HW,2013-01-10 19:32:00,
2013-01-10 12:37:00,49.7,20.9,29.72,SSE,158,17.2,17.4,32,0.00, +FZSN FG BLRA SQ BLRA,OVC100 VV000 5SM,0.00,WUHU216HW,2013-01-10 19:37:00,
2013-01-10 12:42:00,49.7,20.9,29.71,South,170,15.4,20.1,32,0.00, +FZSN FG BLRA SQ BLRA,OVC100 VV000 5SM,0.00,WUHU216HW,2013-01-10 19:42:00,
2013-01-10 12:47:00,49.3,20.6,29.71,SSE,158,17.2,20.4,32,0.00, +FZSN FG BLRA SQ BLRA,OVC100 VV000 5SM,0.00,WUHU216HW,2013-01-10 19:47:00,
2013-01-10 12:52:00,49.1,20.4,29.71,SSE,158,13.9,20.4,32,0.00, +FZSN FG BLRA SQ BLRA,OVC100 VV000 5SM,0.00,WUHU216HW,2013-01-10 19:52:00,
2013-01-10 12:57:00,49.0,20.3,29.71,South,173,14.2,19.7,32,0.00, +FZSN FG BLRA SQ BLRA,OVC100 VV000 5SM,0.00,WUHU216HW,2013-01-10 19:57:00,
2013-01-10 13:02:00,49.0,20.3,29.71,SSE,158,13.4,18.6,32,0.00, +FZSN FG BLRA SQ BLRA,OVC100 VV000 5SM,0.00,WUHU216HW,2013-01-10 20:02:00,
2013-01-10 13:07:00,48.8,20.8,29.71,SSE,158,14.8,14.8,33,0.00, +FZSN FG BLRA SQ BLRA,OVC100 VV000 5SM,0.00,WUHU216HW,2013-01-10 20:07:00,
2013-01-10 13:12:00,48.6,20.7,29.71,SSE,161,10.6,16.8,33,0.00, +FZSN FG BLRA SQ BLRA,OVC100 VV000 5SM,0.00,WUHU216HW,2013-01-10 20:12:00,
2013-01-10 13:17:00,48.2,20.3,29.70,SSE,158,16.3,19.5,33,0.00, +FZSN FG BLRA SQ BLRA,OVC100 VV000 5SM,0.00,WUHU216HW,2013-01-10 20:17:00,
2013-01-10 13:22:00,48.1,20.2,29.70,SSE,147,17.9,20.1,33,0.00, +FZSN FG BLRA SQ BLRA,OVC100 VV000 5SM,0.00,WUHU216HW,2013-01-10 20:22:00,
2013-01-10 13:27:00,48.1,20.2,29.69,SSW,203,16.3,20.1,33,0.00, +FZSN FG BLRA SQ BLRA,OVC100 VV000 5SM,0.00,WUHU216HW,2013-01-10 20:27:00,
2013-01-10 13:32:00,48.1,20.2,29.69,SSE,158,15.0,17.9,33,0.00, +FZSN FG BLRA SQ BLRA,OVC100 VV000 5SM,0.00,WUHU216HW,2013-01-10 20:32:00,
2013-01-10 13:37:00,48.1,20.2,29.69,SSE,168,14.4,17.9,33,0.00, +FZSN FG BLRA SQ BLRA,OVC100 VV000 5SM,0.00,WUHU216HW,2013-01-10 20:37:00,
2013-01-10 13:42:00,48.1,20.2,29.69,SSE,158,12.1,17.2,33,0.00, +FZSN FG BLRA SQ BLRA,OVC100 VV000 5SM,0.00,WUHU216HW,2013-01-10 20:42:00,
2013-01-10 13:47:00,47.9,20.1,29.69,North,0,0.0,13.2,33,0.00, +FZSN FG BLRA SQ BLRA,OVC100 VV000 5SM,0.00,WUHU216HW,2013-01-10 20:47:00,
2013-01-10 13:52:00,48.1,20.2,29.69,North,0,0.0,12.1,33,0.00, +FZSN FG BLRA SQ BLRA,OVC100 VV000 5SM,0.00,WUHU216HW,2013-01-10 20:52:00,
2013-01-10 13:57:00,47.9,20.1,29.68,North,0,0.0,0.0,33,0.00, +FZSN FG BLRA SQ BLRA,OVC100 VV000 5SM,0.00,WUHU216HW,2013-01-10 20:57:00,
2013-01-10 14:02:00,47.9,20.1,29.68,North,0,0.0,0.0,33,0.00, +FZSN FG BLRA SQ BLRA,OVC100 VV000 5SM,0.00,WUHU216HW,2013-01-10 21:02:00,
2013-01-10 14:07:00,47.9,20.1,29.69,North,0,0.0,0.0,33,0.00, +FZSN FG BLRA SQ BLRA,OVC100 VV000 5SM,0.00,WUHU216HW,2013-01-10 21:07:00,
2013-01-10 14:12:00,47.9,20.1,29.69,North,0,0.0,0.0,33,0.00, +FZSN FG BLRA SQ BLRA,OVC100 VV000 5SM,0.00,WUHU216HW,2013-01-10 21:12:00,
2013-01-10 14:17:00,47.9,20.7,29.69,North,0,0.0,0.0,34,0.00, +FZSN FG BLRA SQ BLRA,OVC100 VV000 5SM,0.00,WUHU216HW,2013-01-10 21:17:00,
2013-01-10 14:22:00,47.5,19.7,29.68,North,0,0.0,0.0,33,0.00, +FZSN FG BLRA SQ BLRA,OVC100 VV000 5SM,0.00,WUHU216HW,2013-01-10 21:22:00,
2013-01-10 14:27:00,47.3,19.5,29.68,North,0,0.0,0.0,33,0.00, +FZSN FG BLRA SQ BLRA,OVC100 VV000 5SM,0.00,WUHU216HW,2013-01-10 21:27:00,
2013-01-10 14:32:00,47.3,20.3,29.68,North,0,0.0,0.0,34,0.00, +FZSN FG BLRA SQ BLRA,OVC100 VV000 5SM,0.00,WUHU216HW,2013-01-10 21:32:00,
2013-01-10 14:37:00,47.5,19.7,29.68,North,0,0.0,0.0,33,0.00, +FZSN FG BLRA SQ BLRA,OVC100 VV000 5SM,0.00,WUHU216HW,2013-01-10 21:37:00,
2013-01-10 14:42:00,47.7,20.5,29.68,North,0,0.0,0.0,34,0.00, +FZSN FG BLRA SQ BLRA,OVC100 VV000 5SM,0.00,WUHU216HW,2013-01-10 21:42:00,
2013-01-10 14:47:00,47.7,20.5,29.67,North,0,0.0,0.0,34,0.00, +FZSN FG BLRA SQ BLRA,OVC100 VV000 5SM,0.00,WUHU216HW,2013-01-10 21:47:00,
2013-01-10 14:52:00,47.7,20.5,29.67,North,0,0.0,0.0,34,0.00, +FZSN FG BLRA SQ BLRA,OVC100 VV000 5SM,0.00,WUHU216HW,2013-01-10 21:52:00,
2013-01-10 14:57:00,47.7,20.5,29.67,North,0,0.0,0.0,34,0.00, +FZSN FG BLRA SQ BLRA,OVC100 VV000 5SM,0.00,WUHU216HW,2013-01-10 21:57:00,
2013-01-10 15:02:00,47.9,20.1,29.66,North,0,0.0,0.0,33,0.00, +FZSN FG BLRA SQ BLRA,OVC100 VV000 5SM,0.00,WUHU216HW,2013-01-10 22:02:00,
2013-01-10 15:07:00,47.5,20.3,29.66,North,0,0.0,0.0,34,0.00, +FZSN FG BLRA SQ BLRA,OVC100 VV000 5SM,0.00,WUHU216HW,2013-01-10 22:07:00,
2013-01-10 15:12:00,47.7,20.5,29.66,North,0,0.0,0.0,34,0.00, +FZSN FG BLRA SQ BLRA,OVC100 VV000 5SM,0.00,WUHU216HW,2013-01-10 22:12:00,
2013-01-10 15:17:00,47.5,20.3,29.66,North,0,0.0,0.0,34,0.00, +FZSN FG BLRA SQ BLRA,OVC100 VV000 5SM,0.00,WUHU216HW,2013-01-10 22:17:00,
2013-01-10 15:22:00,47.5,21.1,29.66,North,0,0.0,0.0,35,0.00, +FZSN FG BLRA SQ BLRA,OVC100 VV000 5SM,0.00,WUHU216HW,2013-01-10 22:22:00,
2013-01-10 15:27:00,47.2,21.4,29.66,North,0,0.0,0.0,36,0.00, +FZSN FG BLRA SQ BLRA,OVC100 VV000 5SM,0.00,WUHU216HW,2013-01-10 22:27:00,
2013-01-10 15:32:00,47.2,21.4,29.66,North,0,0.0,0.0,36,0.00, +FZSN FG BLRA SQ BLRA,OVC100 VV000 5SM,0.00,WUHU216HW,2013-01-10 22:32:00,
2013-01-10 15:37:00,47.0,21.3,29.66,North,0,0.0,0.0,36,0.00, +FZSN FG BLRA SQ BLRA,OVC100 VV000 5SM,0.00,WUHU216HW,2013-01-10 22:37:00,
2013-01-10 15:42:00,47.0,21.3,29.67,North,0,0.0,0.0,36,0.00, +FZSN FG BLRA SQ BLRA,OVC100 VV000 5SM,0.00,WUHU216HW,2013-01-10 22:42:00,
2013-01-10 15:47:00,47.0,21.3,29.66,North,0,0.0,0.0,36,0.00, +FZSN FG BLRA SQ BLRA,OVC100 VV000 5SM,0.00,WUHU216HW,2013-01-10 22:47:00,
2013-01-10 15:52:00,46.6,20.9,29.67,North,0,0.0,0.0,36,0.00, +FZSN FG BLRA SQ BLRA,OVC100 VV000 5SM,0.00,WUHU216HW,2013-01-10 22:52:00,
2013-01-10 15:57:00,46.4,21.4,29.66,North,0,0.0,0.0,37,0.00, +FZSN FG BLRA SQ BLRA,OVC100 VV000 5SM,0.00,WUHU216HW,2013-01-10 22:57:00,
2013-01-10 16:02:00,46.3,21.2,29.66,North,0,0.0,0.0,37,0.00, +FZSN FG BLRA SQ BLRA,OVC100 VV000 5SM,0.00,WUHU216HW,2013-01-10 23:02:00,
2013-01-10 16:07:00,46.1,21.1,29.66,North,0,0.0,0.0,37,0.00, +FZSN FG BLRA SQ BLRA,OVC100 VV000 5SM,0.00,WUHU216HW,2013-01-10 23:07:00,
2013-01-10 16:12:00,45.9,20.9,29.66,North,0,0.0,0.0,37,0.00, +FZSN FG BLRA SQ BLRA,OVC100 VV000 5SM,0.00,WUHU216HW,2013-01-10 23:12:00,
2013-01-10 16:17:00,45.7,21.4,29.66,North,0,0.0,0.0,38,0.00, +FZSN FG BLRA SQ BLRA,OVC100 VV000 5SM,0.00,WUHU216HW,2013-01-10 23:17:00,
2013-01-10 16:22:00,46.1,21.8,29.66,South,180,5.6,5.6,38,0.00, +FZSN FG BLRA SQ BLRA,OVC100 VV000 5SM,0.00,WUHU216HW,2013-01-10 23:22:00,
2013-01-10 16:27:00,46.1,21.8,29.66,SSE,158,4.7,5.6,38,0.00, +FZSN FG BLRA SQ BLRA,OVC100 VV000 5SM,0.00,WUHU216HW,2013-01-10 23:27:00,
2013-01-10 16:32:00,45.7,21.4,29.66,North,0,0.0,5.6,38,0.00, +FZSN FG BLRA SQ BLRA,OVC100 VV000 5SM,0.00,WUHU216HW,2013-01-10 23:32:00,
2013-01-10 16:37:00,45.5,21.2,29.66,North,0,0.0,0.0,38,0.00, +FZSN FG BLRA SQ BLRA,OVC100 VV000 5SM,0.00,WUHU216HW,2013-01-10 23:37:00,
2013-01-10 16:42:00,45.5,21.2,29.66,North,0,0.0,0.0,38,0.00, +FZSN FG BLRA SQ BLRA,OVC100 VV000 5SM,0.00,WUHU216HW,2013-01-10 23:42:00,
2013-01-10 16:47:00,45.2,21.0,29.66,North,0,0.0,0.0,38,0.00, +FZSN FG BLRA SQ BLRA,OVC100 VV000 5SM,0.00,WUHU216HW,2013-01-10 23:47:00,
2013-01-10 16:52:00,44.8,21.2,29.66,North,0,0.0,0.0,39,0.00, +FZSN FG BLRA SQ BLRA,OVC100 VV000 5SM,0.00,WUHU216HW,2013-01-10 23:52:00,
2013-01-10 16:57:00,44.3,22.0,29.66,North,0,0.0,0.0,41,0.00, +FZSN FG BLRA SQ BLRA,OVC100 VV000 5SM,0.00,WUHU216HW,2013-01-10 23:57:00,
2013-01-10 17:02:00,44.1,23.0,29.66,North,0,0.0,0.0,43,0.00, +FZSN FG BLRA SQ BLRA,OVC100 VV000 5SM,0.00,WUHU216HW,2013-01-11 00:02:00,
2013-01-10 17:07:00,43.6,23.0,29.66,North,0,0.0,0.0,44,0.00, +FZSN FG BLRA SQ BLRA,OVC100 VV000 5SM,0.00,WUHU216HW,2013-01-11 00:07:00,
2013-01-10 17:12:00,43.6,23.5,29.66,North,0,0.0,0.0,45,0.00, +FZSN FG BLRA SQ BLRA,OVC100 VV000 5SM,0.00,WUHU216HW,2013-01-11 00:12:00,
2013-01-10 17:17:00,43.0,23.1,29.65,North,0,0.0,0.0,45,0.00, +FZSN FG BLRA SQ BLRA,OVC100 VV000 5SM,0.00,WUHU216HW,2013-01-11 00:17:00,
2013-01-10 17:22:00,42.8,22.9,29.65,North,0,0.0,0.0,45,0.00, +FZSN FG BLRA SQ BLRA,OVC100 VV000 5SM,0.00,WUHU216HW,2013-01-11 00:22:00,
2013-01-10 17:27:00,42.5,23.6,29.65,North,0,0.0,0.0,47,0.00, +FZSN FG BLRA SQ BLRA,OVC100 VV000 5SM,0.00,WUHU216HW,2013-01-11 00:27:00,
2013-01-10 17:33:00,42.3,23.4,29.65,North,0,0.0,0.0,47,0.00, +FZSN FG BLRA SQ BLRA,OVC100 VV000 5SM,0.00,WUHU216HW,2013-01-11 00:33:00,
2013-01-10 17:38:00,42.1,23.2,29.65,North,0,0.0,0.0,47,0.00, +FZSN FG BLRA SQ BLRA,OVC100 VV000 5SM,0.00,WUHU216HW,2013-01-11 00:38:00,
2013-01-10 17:43:00,42.1,23.2,29.65,North,0,0.0,0.0,47,0.00, +FZSN FG BLRA SQ BLRA,OVC100 VV000 5SM,0.00,WUHU216HW,2013-01-11 00:43:00,
2013-01-10 17:48:00,41.9,23.0,29.64,North,0,0.0,0.0,47,0.00, +FZSN FG BLRA SQ BLRA,OVC100 VV000 5SM,0.00,WUHU216HW,2013-01-11 00:48:00,
2013-01-10 17:53:00,41.9,23.0,29.64,North,0,0.0,0.0,47,0.00, +FZSN FG BLRA SQ BLRA,OVC100 VV000 5SM,0.00,WUHU216HW,2013-01-11 00:53:00,
2013-01-10 17:58:00,41.8,23.4,29.64,South,180,13.4,13.4,48,0.00, +FZSN FG BLRA SQ BLRA,OVC100 VV000 5SM,0.00,WUHU216HW,2013-01-11 00:58:00,
2013-01-10 18:03:00,41.8,23.4,29.64,SSW,203,13.4,13.4,48,0.00, +FZSN FG BLRA SQ BLRA,OVC100 VV000 5SM,0.00,WUHU216HW,2013-01-11 01:03:00,
2013-01-10 18:08:00,41.4,23.6,29.64,SSE,158,11.6,13.6,49,0.00, +FZSN FG BLRA SQ BLRA,OVC100 VV000 5SM,0.00,WUHU216HW,2013-01-11 01:08:00,
2013-01-10 18:13:00,41.4,23.6,29.64,South,186,9.8,13.6,49,0.00, +FZSN FG BLRA SQ BLRA,OVC100 VV000 5SM,0.00,WUHU216HW,2013-01-11 01:13:00,
2013-01-10 18:18:00,41.6,24.3,29.64,SSW,203,17.7,17.7,50,0.00, +FZSN FG BLRA SQ BLRA,OVC100 VV000 5SM,0.00,WUHU216HW,2013-01-11 01:18:00,
2013-01-10 18:23:00,41.8,24.5,29.64,South,180,16.1,17.7,50,0.00, +FZSN FG BLRA SQ BLRA,OVC100 VV000 5SM,0.00,WUHU216HW,2013-01-11 01:23:00,
2013-01-10 18:28:00,41.8,24.5,29.64,North,0,0.0,17.7,50,0.00, +FZSN FG BLRA SQ BLRA,OVC100 VV000 5SM,0.00,WUHU216HW,2013-01-11 01:28:00,
2013-01-10 18:33:00,41.4,24.1,29.64,North,0,0.0,16.1,50,0.00, +FZSN FG BLRA SQ BLRA,OVC100 VV000 5SM,0.00,WUHU216HW,2013-01-11 01:33:00,
2013-01-10 18:38:00,41.0,23.8,29.63,North,0,0.0,0.0,50,0.00, +FZSN FG BLRA SQ BLRA,OVC100 VV000 5SM,0.00,WUHU216HW,2013-01-11 01:38:00,
2013-01-10 18:43:00,40.7,23.9,29.63,North,0,0.0,0.0,51,0.00, +FZSN FG BLRA SQ BLRA,OVC100 VV000 5SM,0.00,WUHU216HW,2013-01-11 01:43:00,
2013-01-10 18:48:00,40.5,24.6,29.63,North,0,0.0,0.0,53,0.00, +FZSN FG BLRA SQ BLRA,OVC100 VV000 5SM,0.00,WUHU216HW,2013-01-11 01:48:00,
2013-01-10 18:53:00,40.3,24.8,29.64,North,0,0.0,0.0,54,0.00, +FZSN FG BLRA SQ BLRA,OVC100 VV000 5SM,0.00,WUHU216HW,2013-01-11 01:53:00,
2013-01-10 18:58:00,40.5,25.5,29.64,North,0,0.0,0.0,55,0.00, +FZSN FG BLRA SQ BLRA,OVC100 VV000 5SM,0.00,WUHU216HW,2013-01-11 01:58:00,
2013-01-10 19:03:00,40.5,25.0,29.63,North,0,0.0,0.0,54,0.00, +FZSN FG BLRA SQ BLRA,OVC100 VV000 5SM,0.00,WUHU216HW,2013-01-11 02:03:00,
2013-01-10 19:08:00,40.9,25.8,29.63,North,0,0.0,0.0,55,0.00, +FZSN FG BLRA SQ BLRA,OVC100 VV000 5SM,0.00,WUHU216HW,2013-01-11 02:08:00,
2013-01-10 19:13:00,40.7,25.2,29.63,North,0,0.0,0.0,54,0.00, +FZSN FG BLRA SQ BLRA,OVC100 VV000 5SM,0.00,WUHU216HW,2013-01-11 02:13:00,
2013-01-10 19:18:00,40.9,24.5,29.63,North,0,0.0,0.0,52,0.00, +FZSN FG BLRA SQ BLRA,OVC100 VV000 5SM,0.00,WUHU216HW,2013-01-11 02:18:00,
2013-01-10 19:23:00,40.9,24.9,29.63,North,0,0.0,0.0,53,0.00, +FZSN FG BLRA SQ BLRA,OVC100 VV000 5SM,0.00,WUHU216HW,2013-01-11 02:23:00,
2013-01-10 19:28:00,40.7,24.8,29.63,North,0,0.0,0.0,53,0.00, +FZSN FG BLRA SQ BLRA,OVC100 VV000 5SM,0.00,WUHU216HW,2013-01-11 02:28:00,
2013-01-10 19:33:00,40.5,25.0,29.63,North,0,0.0,0.0,54,0.00, +FZSN FG BLRA SQ BLRA,OVC100 VV000 5SM,0.00,WUHU216HW,2013-01-11 02:33:00,
2013-01-10 19:38:00,40.5,25.0,29.63,North,0,0.0,0.0,54,0.00, +FZSN FG BLRA SQ BLRA,OVC100 VV000 5SM,0.00,WUHU216HW,2013-01-11 02:38:00,
2013-01-10 19:43:00,40.5,25.9,29.63,North,0,0.0,0.0,56,0.00, +FZSN FG BLRA SQ BLRA,OVC100 VV000 5SM,0.00,WUHU216HW,2013-01-11 02:43:00,
2013-01-10 19:48:00,40.5,24.6,29.63,North,0,0.0,0.0,53,0.00, +FZSN FG BLRA SQ BLRA,OVC100 VV000 5SM,0.00,WUHU216HW,2013-01-11 02:48:00,
2013-01-10 19:53:00,40.3,24.8,29.63,South,180,20.1,20.6,54,0.00, +FZSN FG BLRA SQ BLRA,OVC100 VV000 5SM,0.00,WUHU216HW,2013-01-11 02:53:00,
2013-01-10 19:58:00,40.1,27.4,29.64,SW,225,14.5,20.6,60,0.00, +FZSN FG BLRA SQ BLRA,OVC100 VV000 5SM,0.00,WUHU216HW,2013-01-11 02:58:00,
2013-01-10 20:03:00,39.6,27.5,29.64,SSW,203,13.9,20.1,62,0.00, +FZSN FG BLRA SQ BLRA,OVC100 VV000 5SM,0.00,WUHU216HW,2013-01-11 03:03:00,
2013-01-10 20:08:00,39.2,27.6,29.64,SSW,207,12.3,17.2,63,0.00, +FZSN FG BLRA SQ BLRA,OVC100 VV000 5SM,0.00,WUHU216HW,2013-01-11 03:08:00,
2013-01-10 20:13:00,38.9,28.0,29.64,SSW,208,10.9,17.2,65,0.00, +FZSN FG BLRA SQ BLRA,OVC100 VV000 5SM,0.00,WUHU216HW,2013-01-11 03:13:00,
2013-01-10 20:18:00,38.5,27.7,29.64,SSW,207,11.6,14.8,65,0.00, +FZSN FG BLRA SQ BLRA,OVC100 VV000 5SM,0.00,WUHU216HW,2013-01-11 03:18:00,
2013-01-10 20:23:00,38.3,27.5,29.64,SSW,203,11.6,15.0,65,0.00, +FZSN FG BLRA SQ BLRA,OVC100 VV000 5SM,0.00,WUHU216HW,2013-01-11 03:23:00,
2013-01-10 20:28:00,38.0,28.0,29.64,SW,225,10.7,15.4,67,0.00, +FZSN FG BLRA SQ BLRA,OVC100 VV000 5SM,0.00,WUHU216HW,2013-01-11 03:28:00,
2013-01-10 20:33:00,37.4,26.7,29.65,SSW,203,15.9,15.9,65,0.00, +FZSN FG BLRA SQ BLRA,OVC100 VV000 5SM,0.00,WUHU216HW,2013-01-11 03:33:00,
2013-01-10 20:38:00,36.9,26.2,29.65,SW,228,13.3,16.1,65,0.00, +FZSN FG BLRA SQ BLRA,OVC100 VV000 5SM,0.00,WUHU216HW,2013-01-11 03:38:00,
2013-01-10 20:43:00,36.4,24.9,29.65,SW,232,7.6,16.1,63,0.00, +FZSN FG BLRA SQ BLRA,OVC100 VV000 5SM,0.00,WUHU216HW,2013-01-11 03:43:00,
2013-01-10 20:48:00,36.2,23.7,29.65,SSW,203,13.9,13.9,60,0.00, +FZSN FG BLRA SQ BLRA,OVC100 VV000 5SM,0.00,WUHU216HW,2013-01-11 03:48:00,
2013-01-10 20:53:00,35.8,22.5,29.65,SSW,210,12.2,15.0,58,0.00, +FZSN FG BLRA SQ BLRA,OVC100 VV000 5SM,0.00,WUHU216HW,2013-01-11 03:53:00,
2013-01-10 20:58:00,35.6,21.5,29.65,SW,220,12.8,15.0,56,0.00, +FZSN FG BLRA SQ BLRA,OVC100 VV000 5SM,0.00,WUHU216HW,2013-01-11 03:58:00,
2013-01-10 21:03:00,35.6,21.5,29.65,SW,216,10.0,15.0,56,0.00, +FZSN FG BLRA SQ BLRA,OVC100 VV000 5SM,0.00,WUHU216HW,2013-01-11 04:03:00,
2013-01-10 21:08:00,35.6,21.5,29.65,SW,225,10.0,14.3,56,0.00, +FZSN FG BLRA SQ BLRA,OVC100 VV000 5SM,0.00,WUHU216HW,2013-01-11 04:08:00,
2013-01-10 21:13:00,35.3,21.2,29.65,SSW,203,12.1,13.6,56,0.00, +FZSN FG BLRA SQ BLRA,OVC100 VV000 5SM,0.00,WUHU216HW,2013-01-11 04:13:00,
2013-01-10 21:18:00,35.1,21.4,29.65,SSW,203,11.4,13.6,57,0.00, +FZSN FG BLRA SQ BLRA,OVC100 VV000 5SM,0.00,WUHU216HW,2013-01-11 04:18:00,
2013-01-10 21:23:00,34.9,21.3,29.65,SW,214,6.5,11.4,57,0.00, +FZSN FG BLRA SQ BLRA,OVC100 VV000 5SM,0.00,WUHU216HW,2013-01-11 04:23:00,
2013-01-10 21:28:00,34.7,21.4,29.65,SW,220,7.5,11.6,58,0.00, +FZSN FG BLRA SQ BLRA,OVC100 VV000 5SM,0.00,WUHU216HW,2013-01-11 04:28:00,
2013-01-10 21:33:00,34.4,21.5,29.65,SW,215,8.2,11.6,59,0.00, +FZSN FG BLRA SQ BLRA,OVC100 VV000 5SM,0.00,WUHU216HW,2013-01-11 04:33:00,
2013-01-10 21:38:00,34.2,21.8,29.66,SSW,203,6.9,9.8,60,0.00, +FZSN FG BLRA SQ BLRA,OVC100 VV000 5SM,0.00,WUHU216HW,2013-01-11 04:38:00,
2013-01-10 21:43:00,34.2,22.1,29.66,SW,225,6.3,7.2,61,0.00, +FZSN FG BLRA SQ BLRA,OVC100 VV000 5SM,0.00,WUHU216HW,2013-01-11 04:43:00,
2013-01-10 21:49:00,34.0,22.0,29.66,SSW,213,7.1,7.6,61,0.00, +FZSN FG BLRA SQ BLRA,OVC100 VV000 5SM,0.00,WUHU216HW,2013-01-11 04:49:00,
2013-01-10 21:54:00,34.2,21.8,29.66,SW,225,6.9,9.8,60,0.00, +FZSN FG BLRA SQ BLRA,OVC100 VV000 5SM,0.00,WUHU216HW,2013-01-11 04:54:00,
2013-01-10 21:59:00,34.0,22.0,29.66,West,270,7.6,9.8,61,0.00, +FZSN FG BLRA SQ BLRA,OVC100 VV000 5SM,0.00,WUHU216HW,2013-01-11 04:59:00,
2013-01-10 22:00:00,34.0,22.0,29.66,West,270,7.6,7.6,61,0.00, +FZSN FG BLRA SQ BLRA,OVC100 VV000 5SM,0.00,WUHU216HW,2013-01-11 05:00:00,
2013-01-10 22:03:00,34.2,22.1,29.66,West,270,7.6,7.6,61,0.00, +FZSN FG BLRA SQ BLRA,OVC100 VV000 5SM,0.00,WUHU216HW,2013-01-11 05:03:00,
2013-01-10 22:08:00,34.2,21.3,29.67,North,0,0.0,7.6,59,0.00, +FZSN FG BLRA SQ BLRA,OVC100 VV000 5SM,0.00,WUHU216HW,2013-01-11 05:08:00,
2013-01-10 22:13:00,34.2,20.9,29.66,North,0,0.0,0.0,58,0.00, +FZSN FG BLRA SQ BLRA,OVC100 VV000 5SM,0.00,WUHU216HW,2013-01-11 05:13:00,
2013-01-10 22:18:00,34.2,20.9,29.66,WSW,248,7.6,7.6,58,0.00, +FZSN FG BLRA SQ BLRA,OVC100 VV000 5SM,0.00,WUHU216HW,2013-01-11 05:18:00,
2013-01-10 22:23:00,34.0,21.2,29.66,North,0,0.0,7.6,59,0.00, +FZSN FG BLRA SQ BLRA,OVC100 VV000 5SM,0.00,WUHU216HW,2013-01-11 05:23:00,
2013-01-10 22:28:00,34.0,21.6,29.66,North,0,0.0,7.6,60,0.00, +FZSN FG BLRA SQ BLRA,OVC100 VV000 5SM,0.00,WUHU216HW,2013-01-11 05:28:00,
2013-01-10 22:33:00,33.5,22.1,29.67,SW,225,4.5,4.5,63,0.00, +FZSN FG BLRA SQ BLRA,OVC100 VV000 5SM,0.00,WUHU216HW,2013-01-11 05:33:00,
2013-01-10 22:38:00,33.1,22.6,29.67,North,0,0.0,4.5,65,0.00, +FZSN FG BLRA SQ BLRA,OVC100 VV000 5SM,0.00,WUHU216HW,2013-01-11 05:38:00,
2013-01-10 22:43:00,33.1,22.2,29.67,North,0,0.0,4.5,64,0.00, +FZSN FG BLRA SQ BLRA,OVC100 VV000 5SM,0.00,WUHU216HW,2013-01-11 05:43:00,
2013-01-10 22:48:00,32.9,21.0,29.67,SW,225,10.1,10.1,61,0.00, +FZSN FG BLRA SQ BLRA,OVC100 VV000 5SM,0.00,WUHU216HW,2013-01-11 05:48:00,
2013-01-10 22:53:00,32.8,20.0,29.67,SW,225,6.5,10.1,59,0.00, +FZSN FG BLRA SQ BLRA,OVC100 VV000 5SM,0.00,WUHU216HW,2013-01-11 05:53:00,
2013-01-10 22:58:00,32.6,19.9,29.66,North,0,0.0,10.1,59,0.00, +FZSN FG BLRA SQ BLRA,OVC100 VV000 5SM,0.00,WUHU216HW,2013-01-11 05:58:00,
2013-01-10 23:03:00,32.4,19.3,29.67,SSW,203,4.7,4.7,58,0.00, +FZSN FG BLRA SQ BLRA,OVC100 VV000 5SM,0.00,WUHU216HW,2013-01-11 06:03:00,
2013-01-10 23:08:00,32.2,19.5,29.67,WSW,248,7.6,7.6,59,0.00, +FZSN FG BLRA SQ BLRA,OVC100 VV000 5SM,0.00,WUHU216HW,2013-01-11 06:08:00,
2013-01-10 23:13:00,32.0,19.4,29.67,North,0,0.0,7.6,59,0.00, +FZSN FG BLRA SQ BLRA,OVC100 VV000 5SM,0.00,WUHU216HW,2013-01-11 06:13:00,
2013-01-10 23:18:00,32.0,19.4,29.67,North,0,0.0,7.6,59,0.00, +FZSN FG BLRA SQ BLRA,OVC100 VV000 5SM,0.00,WUHU216HW,2013-01-11 06:18:00,
2013-01-10 23:23:00,32.0,19.4,29.68,North,0,0.0,0.0,59,0.00, +FZSN FG BLRA SQ BLRA,OVC100 VV000 5SM,0.00,WUHU216HW,2013-01-11 06:23:00,
2013-01-10 23:28:00,32.0,19.4,29.68,North,0,0.0,0.0,59,0.00, +FZSN FG BLRA SQ BLRA,OVC100 VV000 5SM,0.00,WUHU216HW,2013-01-11 06:28:00,
2013-01-10 23:33:00,31.9,19.2,29.68,North,0,0.0,0.0,59,0.00, +FZSN FG BLRA SQ BLRA,OVC100 VV000 5SM,0.00,WUHU216HW,2013-01-11 06:33:00,
2013-01-10 23:38:00,31.7,19.0,29.69,North,0,0.0,0.0,59,0.00, +FZSN FG BLRA SQ BLRA,OVC100 VV000 5SM,0.00,WUHU216HW,2013-01-11 06:38:00,
2013-01-10 23:43:00,31.3,18.3,29.69,North,0,0.0,0.0,58,0.00, +FZSN FG BLRA SQ BLRA,OVC100 VV000 5SM,0.00,WUHU216HW,2013-01-11 06:43:00,
2013-01-10 23:48:00,30.6,17.6,29.69,North,0,0.0,0.0,58,0.00, +FZSN FG BLRA SQ BLRA,OVC100 VV000 5SM,0.00,WUHU216HW,2013-01-11 06:48:00,
2013-01-10 23:53:00,30.2,17.6,29.69,North,0,0.0,0.0,59,0.00, +FZSN FG BLRA SQ BLRA,OVC100 VV000 5SM,0.00,WUHU216HW,2013-01-11 06:53:00,
2013-01-10 23:58:00,30.1,18.2,29.70,North,0,0.0,0.0,61,0.00, +FZSN FG BLRA SQ BLRA,OVC100 VV000 5SM,0.00,WUHU216HW,2013-01-11 06:58:00,